Location: Monroe
(41.9160°N, 83.3980°W)
Time: 03:02:17
(UTC-05:00)

ISS - Visible Passes

Search period start: 19 December 2014 00:00
Search period end: 29 December 2014 00:00
Orbit: 404 x 415 km, 51.6° (Epoch: 19 December)

Date Brightness Start Highest point End Pass type
(mag) Time Alt. Az. Time Alt. Az. Time Alt. Az.
19 Dec -1.2 17:58:44 10° NW 18:00:44 15° N 18:02:21 11° NNE visible
20 Dec -1.4 18:44:39 10° NW 18:46:30 19° N 18:46:30 19° N visible
21 Dec -1.4 17:53:54 10° NNW 17:56:10 17° N 17:57:54 12° NE visible
21 Dec -0.5 19:30:08 10° NW 19:30:40 14° NW 19:30:40 14° NW visible
22 Dec -2.3 18:39:22 10° NW 18:42:08 31° NNE 18:42:08 31° NNE visible
23 Dec -1.9 17:48:35 10° NW 17:51:18 23° NNE 17:53:41 12° ENE visible
23 Dec -1.3 19:24:52 10° WNW 19:26:27 26° WNW 19:26:27 26° WNW visible
24 Dec -3.4 18:33:54 10° NW 18:37:10 65° NNE 18:38:09 40° E visible
25 Dec -2.7 17:42:58 10° NW 17:46:05 39° NNE 17:49:11 10° E visible
25 Dec -1.4 19:19:43 10° WNW 19:22:33 27° SW 19:22:53 26° SSW visible
26 Dec -2.5 18:28:23 10° WNW 18:31:35 50° SW 18:34:45 10° SE visible
27 Dec -3.3 17:37:11 10° NW 17:40:29 86° NE 17:43:45 10° SE visible
27 Dec 0.1 19:15:38 10° WSW 19:16:34 11° SW 19:17:29 10° SW visible
28 Dec -0.5 18:23:06 10° W 18:25:36 20° SW 18:28:04 10° S visible
